Regional Weather Roundup
Issued by NWS

Home | Current Version | Previous Version | Graphics & Text | Print | Product List | Glossary On
Versions: 1 2 3 4 5 6 7 8 9 10 11 12 13 14 15 16 17 18 19 20 21 22 23 24 25 26 27 28 29 30 31 32 33 34 35 36 37 38 39 40 41 42 43 44 45 46 47 48 49 50
000
ASUS43 KIND 130609
RWRIN

WEATHER ROUNDUP FOR INDIANA
NATIONAL WEATHER SERVICE INDIANAPOLIS IN
100 AM EST WED DEC 13 2017

NOTE: "FAIR" INDICATES FEW OR NO CLOUDS BELOW 12,000 FEET WITH NO
SIGNIFICANT WEATHER AND/OR OBSTRUCTIONS TO VISIBILITY.

* - STATION DOES NOT REPORT WEATHER SUCH AS PRECIPITATION OR FOG.

+ - STATION NOT QUALITY CONTROLLED BY THE NATIONAL WEATHER SERVICE.
    USE DATA WITH CAUTION...ESPECIALLY DEWPOINT AND RELATIVE
    HUMIDITY OBSERVATIONS.

INZ001>003-010>013-019-020-130700-
NORTHWEST INDIANA

CITY           SKY/WX    TMP DP  RH WIND       PRES   REMARKS
GARY /AIRPORT/ CLOUDY    24   6  46 SW3       29.95F
KNOX *+        CLOUDY    19  10  68 W8        29.95S WCI   9
LA PORTE +     CLOUDY    17   9  71 W8        29.93F WCI   7
6HR MIN TEMP:  15; 6HR MAX TEMP:  20;

MICHIGAN CITY+ PTCLDY    19  10  68 SW8       29.93F WCI   9
MONTICELLO +   CLOUDY    18   9  66 SW3       29.96F
6HR MIN TEMP:  14; 6HR MAX TEMP:  18;

RENSSELAER +   CLOUDY    21   9  58 SW5       29.95F WCI  15
VALPARAISO     CLOUDY    20   9  62 W6        29.93F WCI  12
6HR MIN TEMP:  17; 6HR MAX TEMP:  20;


$$

LMZ046-743>745-130700-
SOUTHERN LAKE MICHIGAN

STATION/POSITION TIME  TEMP    WIND        PRES    WAVE
                       AIR SEA DIR/SP/G            HT
                 (UTC) (F)     (DEG/KT/KT) (MB)    (FT)
BURNS HARBOR     0518   23     260/ 10/ 17 1014.6F

$$

INZ004-005-014>016-021>024-130700-
NORTH CENTRAL INDIANA

CITY           SKY/WX    TMP DP  RH WIND       PRES   REMARKS
GOSHEN         CLOUDY    16   8  71 W13       29.90F WCI   2
6HR MIN TEMP:  16; 6HR MAX TEMP:  20; 6HR PCP: TRACE;

LOGANSPORT +   CLOUDY    18   9  68 W6        29.96F WCI   9
PERU/GRISSOM   CLOUDY    17   9  69 W6        29.94F WCI   9
6HR MIN TEMP:  16; 6HR MAX TEMP:  18;

ROCHESTER +    CLOUDY    19  10  68 W3        29.94F
SOUTH BEND     CLOUDY    16  10  77 SW9       29.91F WCI   4
6HR MIN TEMP:  15; 6HR MAX TEMP:  21; 6HR PCP: TRACE;

WARSAW +       CLOUDY    18   9  68 W7        29.93S WCI   8

$$

INZ006>009-017-018-025>027-130700-
NORTHEAST INDIANA

CITY           SKY/WX    TMP DP  RH WIND       PRES   REMARKS
AUBURN +       FLURRIES  19  12  73 SW7       29.92F WCI  10
FORT WAYNE     CLOUDY    16   9  74 W12       29.93F WCI   3
6HR MIN TEMP:  15; 6HR MAX TEMP:  20;

HUNTINGTON +   CLOUDY    16   8  71 W8        29.94S WCI   5
6HR MIN TEMP:  16; 6HR MAX TEMP:  19;

KENDALLVILLE + CLOUDY    17  11  79 SW8       29.89S WCI   6

$$

INZ028-029-035-036-043>045-051>053-130700-
WEST CENTRAL INDIANA

CITY           SKY/WX    TMP DP  RH WIND       PRES   REMARKS
CRAWFORDSVL +  CLOUDY    17  10  72 S5          N/A  WCI  10
6HR MIN TEMP:  15; 6HR MAX TEMP:  17;

GREENCASTLE +  MOCLDY    18   9  68 CALM      29.99F
LAFAYETTE      CLOUDY    18  10  71 SW3       29.98F
6HR MIN TEMP:  15; 6HR MAX TEMP:  20;

TERRE HAUTE    CLOUDY    21  10  62 SW3       30.01F
6HR MIN TEMP:  19; 6HR MAX TEMP:  24;


$$

INZ030>032-037>040-046>048-054>057-064-065-130700-
CENTRAL INDIANA

CITY           SKY/WX    TMP DP  RH WIND       PRES   REMARKS
FRANKFORT +    CLOUDY    20  11  68 W6        29.97F WCI  12
6HR MIN TEMP:  16; 6HR MAX TEMP:  22;

INDIANAPOLIS   MOCLDY    16   7  67 SW7       29.98F WCI   6
6HR MIN TEMP:  16; 6HR MAX TEMP:  21;

-EAGLE CREEK   CLOUDY    18   6  59 SW5       29.97F WCI  11
6HR MIN TEMP:  18; 6HR MAX TEMP:  23;

KOKOMO +       CLOUDY    17  10  74 W6        29.96F WCI   9
6HR MIN TEMP:  16; 6HR MAX TEMP:  18;

MARION +       LGT SNOW  17  10  74 W9        29.96F WCI   6
MT COMFORT *+  CLOUDY    16  10  79 CALM      29.96F
SHELBYVILLE    CLOUDY    19   7  59 W5        29.98F WCI  12
6HR MIN TEMP:  17; 6HR MAX TEMP:  24;

ZIONSVILLE +   CLOUDY    16   8  70 W6        29.97F WCI   7
6HR MIN TEMP:  14; 6HR MAX TEMP:  19;


$$

INZ033-034-041-042-049-050-058-059-130700-
EAST CENTRAL INDIANA

CITY           SKY/WX    TMP DP  RH WIND       PRES   REMARKS
MUNCIE         CLOUDY    17   9  70 W5        29.94F WCI  10
6HR MIN TEMP:  16; 6HR MAX TEMP:  21;

RICHMOND +     CLEAR     14   9  79 SW6       29.94F WCI   5

$$

INZ060-061-067>069-081>083-085>088-130700-
SOUTHWEST INDIANA

CITY           SKY/WX    TMP DP  RH WIND       PRES   REMARKS
EVANSVILLE     CLEAR     24  11  57 CALM      30.09F
6HR MIN TEMP:  22; 6HR MAX TEMP:  29;

HUNTINGBURG +  CLEAR     21  12  68 SW3       30.07F
6HR MIN TEMP:  19; 6HR MAX TEMP:  26;

WASHINGTON +   CLEAR     22  11  63 SW6       30.05F WCI  14
6HR MIN TEMP:  21; 6HR MAX TEMP:  27;


$$

INZ062-063-066-070>080-084-089>092-130700-
SOUTH CENTRAL AND SOUTHEAST INDIANA

CITY           SKY/WX    TMP DP  RH WIND       PRES   REMARKS
BEDFORD +      CLEAR     21   7  53 CALM      30.02S
BLOOMINGTON    CLEAR     20   6  55 SW3       29.99F
6HR MIN TEMP:  20; 6HR MAX TEMP:  24;

MADISON *+     CLEAR     21  10  63 SW3       30.03S
NORTH VERNON + CLEAR     18   9  68 W5        30.02F WCI  11
SEYMOUR +      CLEAR     18   9  68 SW5       30.03F WCI  11

$$




USA.gov is the U.S. government's official web portal to all federal, state and local government web resources and services.